Wind_Speed
20 23 24 27 31 36 19 5 1 7 9 1 1 3 4 1 3 3 3 2 3 2 2 2 3 8 3 2 15 15 7 3 4 4 2 4 4 7 10 4 4 2 1 6
19 21 23 25 27 29 9 3 3 5 2 2 3 3 3 3 4 5 5 4 4 0 1 2 1 2 3 8 9 16 9 7 6 6 3 3 6 5 5 4 3 5 7 9
20 21 22 23 25 27 9 2 2 1 1 1 3 3 4 6 5 4 3 3 2 1 1 0 3 2 3 8 2 7 6 11 10 11 9 6 5 6 9 12 6 6 7 12
19 19 20 21 22 23 8 3 2 3 2 2 3 5 5 7 8 5 8 4 7 5 4 2 3 2 4 1 5 2 6 15 10 14 6 6 5 7 14 15 11 12 12 18
18 17 17 17 19 19 4 3 3 3 4 6 6 5 7 10 6 5 6 4 7 6 5 3 2 4 3 3 7 3 3 8 9 19 8 10 13 9 12 11 5 2 13 13
15 15 15 15 14 13 4 3 2 1 3 3 4 5 9 10 12 8 10 7 7 7 9 10 10 7 12 11 6 3 2 4 7 15 8 10 11 15 15 13 10 8 9 10
14 14 14 14 12 9 3 2 2 2 5 6 8 7 7 8 8 8 2 3 10 2 1 7 8 7 11 13 12 10 2 1 2 10 9 12 13 11 15 19 16 13 4 9
15 16 14 14 11 9 8 4 2 2 4 7 13 16 11 9 6 7 10 11 8 3 3 3 5 5 4 11 14 15 15 4 3 7 12 2 6 5 10 11 15 18 13 12
16 15 14 14 10 9 9 10 9 3 3 6 8 10 7 5 3 4 6 1 2 8 6 5 5 9 10 9 7 9 14 12 5 4 13 15 9 13 9 11 12 17 18 19
16 17 17 15 12 9 10 8 10 5 4 8 12 7 5 5 1 3 3 3 3 6 7 9 8 9 3 9 15 9 8 7 15 7 10 10 10 10 12 11 7 20 22 22
15 15 15 14 14 11 11 8 8 12 3 9 13 13 12 10 4 2 4 4 4 4 8 8 7 7 9 4 8 13 11 12 7 7 8 12 12 11 13 9 2 19 20 23
15 15 15 15 13 10 9 7 12 15 6 5 15 24 27 24 25 8 4 4 3 2 3 1 3 5 4 7 7 5 11 11 10 13 8 2 11 12 16 10 7 14 20 22
16 15 16 15 12 9 10 14 14 9 3 7 11 13 33 34 39 33 5 3 1 3 4 2 3 7 3 5 7 6 7 4 9 7 13 9 13 9 8 13 16 18 23 25
17 17 17 16 15 12 9 9 9 4 1 3 5 5 11 10 21 32 37 7 3 1 2 2 3 5 3 3 2 3 1 9 9 10 3 13 10 14 7 10 8 14 18 24
18 18 18 17 17 15 14 18 20 19 7 3 7 20 10 16 12 20 22 8 2 1 1 2 4 4 4 3 3 4 1 3 9 10 11 13 12 15 12 14 18 20 23 22
18 18 19 19 16 12 6 2 3 12 18 3 4 5 4 5 13 15 14 7 3 2 1 4 5 4 4 3 3 2 5 7 10 4 8 3 3 8 14 15 18 23 25 26
21 21 22 20 13 10 5 1 3 11 14 2 4 4 3 7 5 3 3 4 2 3 2 4 4 3 3 3 2 8 11 10 10 12 4 4 11 8 15 13 16 14 17 18
23 24 21 15 6 6 7 8 15 16 4 3 3 3 3 8 3 2 1 1 1 2 3 3 3 3 3 3 4 12 14 15 11 8 12 4 5 9 14 17 20 20 19 21
24 17 11 3 3 4 2 1 2 8 4 3 2 2 1 6 2 2 1 3 1 4 4 3 2 2 1 4 11 14 14 11 16 12 3 7 10 15 17 21 22 20 19 21
13 5 1 2 1 9 9 4 3 3 3 3 4 3 2 3 3 2 2 2 3 3 4 2 2 2 5 4 11 12 13 15 14 3 7 8 11 14 17 19 17 18 23 21
5 4 2 6 9 2 1 2 3 3 3 3 4 4 2 3 4 3 3 3 3 3 2 3 1 1 4 11 11 11 11 12 8 6 2 7 12 13 13 12 12 13 16 13
7 8 7 5 2 0 3 3 1 4 2 4 3 2 5 2 3 2 5 3 3 6 0 4 3 2 9 12 14 13 11 10 10 10 8 12 14 13 14 13 13 13 17 21
1 2 2 2 1 1 4 4 2 2 1 1 3 3 2 2 2 2 3 5 4 4 2 2 2 3 7 9 9 9 8 8 10 11 11 11 10 11 14 13 17 25 25 27
1 2 2 4 3 4 4 2 1 2 3 6 6 3 1 1 1 1 2 3 4 4 3 2 3 5 9 6 6 6 11 11 10 12 10 9 7 8 9 13 20 23 21 28
2 2 4 5 3 3 4 3 3 2 3 5 3 3 2 1 2 0 2 3 1 2 2 3 3 6 7 8 10 11 11 10 11 11 9 8 7 6 7 9 12 17 21 23
2 4 4 3 3 4 4 4 2 0 3 2 1 2 2 1 3 2 1 1 1 1 3 3 2 3 6 8 9 10 12 12 12 11 11 8 3 4 6 7 11 15 20 23
3 4 3 3 3 4 3 2 2 1 2 2 1 1 2 3 2 2 1 0 4 6 5 3 2 7 9 11 13 14 13 12 11 13 16 13 7 5 8 7 6 11 14 12
Wind_Direction
355 356 357 358 357 355 360 350 354 360 345 188 333 211 205 256 207 177 225 243 263 269 288 216 206 193 253 223 177 200 184 147 165 166 86 227 190 171 191 228 187 90 129 142
352 356 357 359 0 1 346 14 292 8 17 238 218 264 250 256 191 203 195 230 228 102 307 263 228 262 21 2 194 185 178 208 185 153 162 140 202 182 173 132 132 200 162 162
350 351 354 355 357 359 5 343 333 17 81 76 305 278 247 222 213 228 208 243 155 201 266 52 351 331 322 338 345 28 192 207 210 207 211 148 181 194 198 209 215 185 181 154
347 348 350 352 355 357 3 12 43 11 293 183 267 290 307 232 213 208 200 191 224 194 230 243 220 211 277 58 354 121 186 218 201 231 191 181 213 191 186 207 218 204 164 168
340 342 347 351 352 355 30 352 357 350 290 295 261 211 235 246 219 208 180 203 177 191 213 239 41 21 283 13 21 75 11 206 200 232 199 235 245 240 209 203 213 142 170 163
338 341 343 346 346 360 11 354 335 281 284 271 244 229 229 251 250 255 247 232 252 238 239 257 278 267 280 278 300 343 48 192 185 226 204 219 249 232 197 202 196 172 169 184
340 336 337 333 341 334 311 259 290 263 266 254 241 283 317 285 279 266 227 244 224 225 13 286 258 243 252 255 238 228 210 99 265 210 162 218 236 248 211 207 203 208 137 173
333 330 331 325 328 313 288 240 204 243 265 272 275 273 276 291 298 250 250 258 245 164 290 296 270 206 223 232 223 206 216 203 220 208 211 274 241 195 179 188 218 201 193 157
324 323 318 316 317 309 279 259 231 222 271 259 274 289 283 287 251 273 232 172 319 201 204 208 229 210 205 185 140 208 203 212 228 172 215 219 217 208 221 201 249 189 176 165
322 321 315 315 310 295 277 256 234 218 262 261 269 263 317 298 328 268 297 344 196 194 196 212 219 230 228 199 188 155 162 182 209 214 220 224 197 208 149 186 236 173 182 171
337 337 334 326 305 288 255 256 242 224 264 265 264 262 261 277 265 280 4 289 191 182 199 213 207 229 222 208 171 166 166 165 184 202 209 233 173 147 180 203 121 175 176 175
329 329 330 337 327 295 261 253 271 249 232 267 277 269 259 254 257 287 271 301 308 10 254 198 289 249 224 226 204 186 196 201 181 200 199 264 195 180 210 187 165 181 180 175
321 321 326 327 325 320 260 253 271 271 300 281 245 238 251 245 238 230 249 218 288 87 16 339 282 264 279 210 220 191 211 171 199 158 207 224 218 224 213 199 200 188 176 168
313 313 312 314 312 305 291 273 271 226 252 278 292 290 267 252 235 215 214 229 44 148 288 276 248 263 238 280 318 256 184 163 170 187 186 211 231 231 203 204 195 170 172 165
312 310 308 306 304 303 297 280 269 231 208 288 286 297 282 249 223 194 193 176 192 223 324 248 236 253 263 229 264 229 218 187 193 196 181 179 214 222 192 175 170 166 156 165
318 315 311 308 304 301 308 287 215 192 201 270 297 325 316 137 162 165 176 167 174 166 161 251 258 254 256 264 234 38 306 279 266 288 173 193 266 197 178 186 174 167 166 163
320 315 313 311 299 249 205 269 103 177 183 264 291 292 142 140 139 153 150 145 184 189 211 234 255 272 265 261 256 355 343 323 289 259 205 230 222 197 175 185 170 144 158 158
320 314 312 309 282 225 253 272 232 205 230 241 267 271 190 189 170 133 222 164 73 224 247 248 240 292 244 232 347 324 320 320 272 267 216 249 192 144 150 146 148 154 154 156
323 315 311 233 208 199 189 118 271 199 226 280 279 279 125 175 115 78 96 60 207 213 227 229 193 270 241 320 324 321 322 307 293 294 166 202 182 149 150 151 155 157 155 154
333 339 294 227 191 299 297 116 167 173 183 232 247 255 279 186 135 155 129 63 259 259 210 143 205 231 269 274 321 302 307 300 302 149 105 134 144 151 159 166 164 168 163 158
6 357 288 316 321 268 221 236 222 169 213 212 239 237 276 208 199 128 165 165 286 282 189 196 191 299 333 336 336 325 320 308 322 357 98 129 126 130 137 140 151 155 163 160
309 284 297 303 301 267 242 235 217 213 234 187 252 242 211 235 189 168 175 107 243 240 254 174 168 255 345 343 339 327 332 333 13 41 104 103 109 122 123 124 127 130 141 132
226 175 251 305 192 261 229 195 204 242 226 226 303 284 230 223 209 163 166 175 242 348 317 130 128 321 328 341 333 333 354 9 29 43 60 81 99 120 131 135 143 144 141 146
251 209 246 211 218 235 209 215 294 302 269 312 304 259 276 18 311 299 172 166 201 201 191 93 102 4 309 322 354 27 23 22 35 40 50 69 81 106 122 142 150 146 154 155
248 209 233 205 220 266 276 272 265 222 293 304 294 265 325 306 259 234 246 185 359 45 53 42 39 331 319 18 29 27 31 20 27 37 44 57 93 99 112 134 146 145 150 158
233 237 251 212 238 220 227 241 256 116 315 250 256 346 287 294 309 269 107 128 77 116 83 70 293 300 360 30 47 31 35 21 22 28 29 36 43 127 128 131 144 151 151 154
229 246 242 251 293 261 264 263 269 88 320 352 333 283 348 292 257 271 247 105 134 136 133 134 30 17 14 16 27 27 28 25 21 15 24 36 28 101 143 145 166 164 155 166
Height
815 811 806 800 793 784 776 776 766 772 770 769 778 765 762 757 751 749 749 750 751 752 751 748 748 738 733 727 719 736 733 741 765 761 750 746 748 756 758 782 798 797 779 787
815 812 807 803 797 791 787 785 783 772 773 768 768 766 760 755 753 750 750 750 749 750 752 758 752 745 734 729 725 727 731 745 768 769 758 754 754 757 755 764 770 784 783 784
814 811 808 804 800 794 790 787 774 772 772 777 772 767 758 755 748 748 746 746 748 751 754 753 756 749 738 734 729 731 725 732 747 761 749 743 759 758 758 752 770 775 762 767
815 812 810 806 802 797 794 792 788 792 775 770 771 770 765 756 750 746 745 750 749 750 757 756 753 750 741 731 734 729 724 741 744 735 738 739 741 748 758 757 745 762 755 755
814 812 809 807 804 800 798 795 796 794 787 781 775 770 760 758 750 746 746 750 745 750 754 750 754 750 744 743 735 736 734 740 741 741 742 740 745 738 743 750 755 753 745 747
812 810 809 807 805 803 802 802 801 798 785 778 774 763 756 750 749 743 740 742 745 748 748 742 741 744 744 745 752 749 745 743 746 750 740 746 760 739 739 740 738 737 754 733
810 809 807 806 805 805 805 803 803 798 783 778 768 762 763 757 754 749 741 743 745 742 740 739 737 740 740 740 742 742 749 752 748 744 749 775 724 705 714 726 726 729 733 734
808 806 805 803 803 802 803 802 803 801 789 778 773 767 763 757 754 753 747 740 738 739 740 747 746 741 742 729 732 741 739 749 750 748 749 738 726 720 721 730 727 720 723 733
805 803 801 800 800 799 798 799 800 799 795 777 776 771 765 763 758 750 741 739 740 738 743 746 750 736 719 726 738 730 737 740 747 751 747 755 717 695 692 695 735 706 712 726
802 800 798 797 796 795 795 794 795 795 791 782 782 778 767 757 754 753 747 744 742 738 741 742 738 727 709 719 717 744 751 754 751 745 733 714 692 686 693 739 721 698 701 712
799 797 795 793 792 791 791 789 789 790 782 777 778 775 772 764 757 753 752 747 743 741 741 732 725 721 704 705 697 713 721 733 742 739 737 734 676 694 707 691 688 687 695 703
796 794 792 790 788 787 787 787 784 783 782 776 772 770 768 764 763 763 754 750 747 741 737 735 732 720 707 695 701 694 701 682 702 705 703 676 673 670 666 667 680 686 690 696
793 791 788 787 785 784 784 782 781 780 777 769 762 751 746 750 749 757 757 748 746 746 746 745 738 733 707 698 690 682 683 682 678 695 680 677 672 667 662 665 665 671 676 686
790 787 784 783 781 781 781 780 779 779 780 773 743 740 739 735 737 741 745 747 749 750 748 743 741 730 702 692 689 685 673 678 678 672 674 668 665 664 658 663 666 671 680 682
785 782 780 778 777 776 776 773 770 772 777 763 747 738 729 727 731 734 742 746 749 749 744 744 734 714 705 692 691 678 676 671 666 664 656 657 655 650 657 660 663 668 675 689
780 777 775 773 772 772 772 767 765 764 768 767 751 733 728 728 730 734 739 740 744 744 742 740 724 706 705 694 683 675 672 672 670 658 650 651 650 649 649 653 659 661 667 674
775 771 768 766 766 766 768 763 764 764 768 766 753 734 729 729 731 733 735 739 739 740 741 732 717 705 704 690 683 674 671 668 665 660 656 657 652 644 645 651 656 667 676 685
769 765 762 760 759 761 761 758 759 764 766 763 752 734 728 728 728 730 734 733 732 732 729 719 713 707 700 685 678 677 671 668 661 657 646 644 642 640 644 650 659 668 674 681
763 758 757 757 758 758 756 758 759 761 764 754 745 733 718 723 727 730 730 732 736 725 725 715 711 703 699 692 688 681 675 674 667 651 638 640 639 641 645 649 659 669 673 680
760 756 757 754 755 753 753 755 755 757 757 756 746 731 724 722 723 729 730 733 734 719 711 708 709 703 694 689 686 682 675 671 661 643 644 644 642 644 648 651 657 661 662 674
761 760 756 755 753 751 750 746 746 743 741 741 731 726 725 720 718 724 729 733 728 720 704 706 709 698 692 686 683 679 672 666 656 647 644 644 643 647 653 659 663 670 676 682
763 764 760 757 754 751 747 739 737 737 727 730 724 717 720 716 716 713 723 724 725 714 700 698 705 697 691 687 683 680 673 666 657 651 651 645 646 653 658 663 669 674 682 684
759 761 759 755 752 752 741 731 728 727 724 725 721 715 712 710 712 710 712 718 708 699 696 694 699 699 697 693 689 681 674 667 661 657 651 651 655 659 661 667 672 675 680 689
757 756 764 749 740 737 730 730 729 729 726 722 721 716 711 707 703 703 697 703 704 704 700 692 696 698 704 700 692 683 675 671 668 661 659 661 665 666 669 671 673 674 682 685
754 754 752 741 736 734 729 732 733 729 728 724 715 709 709 705 702 704 701 699 695 693 697 691 696 698 701 692 686 684 679 678 672 667 669 669 671 674 675 677 679 680 685 691
752 748 741 735 735 729 730 727 726 728 726 724 719 714 710 707 710 699 700 698 698 699 695 704 713 711 701 696 692 689 681 681 678 675 676 676 675 677 680 683 685 688 690 694
745 738 735 735 734 729 724 724 721 727 722 717 717 715 709 715 705 701 698 696 697 699 704 710 710 703 697 689 686 686 684 688 685 680 681 683 683 683 684 685 690 691 693 700